Regional Weather Roundup
Issued by NWS

Home | Current Version | Previous Version | Text Only | Print | Product List | Glossary On
Versions: 1 2 3 4 5 6 7 8 9 10 11 12 13 14 15 16 17 18 19 20 21 22 23 24 25 26 27 28 29 30 31 32 33 34 35 36 37 38 39 40 41 42 43 44 45 46 47 48 49 50
000
ASUS45 KSLC 291810
RWRUT

UTAH REGIONAL WEATHER ROUNDUP
NATIONAL WEATHER SERVICE SALT LAKE CITY UT
1200 PM MDT TUE JUL 29 2014

UTZ001>011-023>025-291900-

NORTHERN UTAH

CITY           SKY/WX    TMP DP  RH WIND       PRES   REMARKS
HILL AFB       NOT AVBL
LOGAN          CLOUDY    66  62  87 NW5       30.23F
OGDEN          LGT RAIN  66  61  84 SE9       30.21F
PROVO AIRPORT  PTSUNNY   79  57  47 VRB3      30.19F
SALT LAKE CITY CLOUDY    72  62  71 N15       30.19F
VERNAL         CLOUDY    70  59  68 SE8       30.27F
WENDOVER       CLOUDY    72  61  68 E8        30.23S
HEBER CITY     PTSUNNY   70  55  60 CALM      30.24F
WEST JORDAN    CLOUDY    72  68  88 N9        30.22F

$$

UTZ012>022-026-027-291900-

SOUTHERN UTAH

CITY           SKY/WX    TMP DP  RH WIND       PRES   REMARKS
BRYCE CANYON   TSTM      63  56  78 SE9       30.42S
CEDAR CITY     PTSUNNY   81  51  35 SW13G22   30.25F
MILFORD        MOSUNNY   83  54  36 S14       30.20F
MOAB/CYNLANDS  SUNNY     76  61  59 E5        30.21F
PRICE          MOSUNNY   73  54  51 E8        30.29F
ST GEORGE      MOCLDY    90  54  29 NW7       30.11F
KANAB            N/A     82  50  32 SE6       30.26F

$$

REGIONAL REPORTS     COLORADO/ARIZONA

CITY           SKY/WX    TMP DP  RH WIND       PRES   REMARKS
CRAIG, CO      CLOUDY    59  59 100 SW13      30.35S
GRAND JUNCTION CLOUDY    72  62  71 CALM      30.26F
RIFLE          LGT RAIN  64  62  93 CALM      30.33F
MONTROSE       PTSUNNY   71  60  68 CALM      30.33F
CORTEZ         SUNNY     75  58  55 SW8       30.31F
PAGE, AZ       SUNNY     88  53  30 VRB6      30.19F
GRAND CANYON   MOSUNNY   78  49  35 SW10      30.38F
KINGMAN        MOSUNNY   91  54  28 SW14      30.14F
FLAGSTAFF      PTSUNNY   77  47  34 S12       30.41F

$$

REGIONAL REPORTS    NEVADA/IDAHO/WYOMING

CITY           SKY/WX    TMP DP  RH WIND       PRES   REMARKS
LAS VEGAS, NV  MOSUNNY   92  57  30 CALM      30.02F HX  90
ELY            CLOUDY    67  52  58 SE3       30.35S
ELKO           MOSUNNY   80  49  33 S7        30.23F
POCATELLO, ID  PTSUNNY   69  62  78 NE5       30.23F
BURLEY         PTSUNNY   80  54  40 NE10      30.18S
EVANSTON, WY   LGT RAIN  58  57  97 N6        30.37F
ROCK SPRINGS   LGT RAIN  67  51  56 E21       30.35S

$$



USA.gov is the U.S. government's official web portal to all federal, state and local government web resources and services.